Location: Presov
(49.0000°N, 21.2500°E)
Time: 20:42:58
(UTC+02:00)

ISS - Pass Details

Date: 19 May 2025
Orbit: 415 x 417 km, 51.6° (Epoch: 16 June)

Event Time Altitude Azimuth Distance (km) Brightness Sun altitude
Rises 23:53:26 0° 286° (WNW) 2,359 0.4 -20.5°
Reaches altitude 10° 23:55:54 10° 268° (W) 1,491 -0.9 -20.6°
Enters shadow 23:56:18 12° 263° (W) 1,377 -1.1 -20.6°
